Flag for Australia Weather past 2 weeks in Launceston, Tasmania, Australia

Now
50 °F

Partly sunny.


Feels Like: 44 °F
Forecast: 32 / 53 °F
Wind: 20 mph from North

Location: Launceston Airport

Current Time: May 31, 2015 at 9:20:02 AM

Latest Report: May 31, 2015 at 8:30 AM


Visibility: N/A

Pressure: 29.59 "Hg

Humidity: 71%

Dew point: 41 °F

Location of LauncestonLocation

Historic Weather in Launceston — Graph

°F

Launceston temperature yesterday

Maximum temperature yesterday: 55 °F (at 1:30 PM)
Minimum temperature yesterday: 45 °F (at 10:30 PM)
Average temperature yesterday: 49 °F

Past Weeks' High & Low Weather Summary

 TemperatureHumidityPressure
High59 °F (May 19, 12:00 PM)100% (May 16, 10:00 PM)30.57 "Hg (May 16, 10:00 PM)
Low25 °F (May 23, 5:00 AM)47% (May 22, 3:30 PM)29.56 "Hg (May 31, 6:00 AM)
Average46 °F83%30.14 "Hg
* Reported May 16 7:00 AM — May 31 7:30 AM, Launceston, Weather by CustomWeather, © 2015

Note: Actual official high and low records may vary slightly from our data, if they occured in-between our weather recording intervals... More about our weather records

Advertising

Launceston weather history for previous 24 hours

 ConditionsComfort  
Time TempWeatherWind HumidityBarometerVisibility
7:30 AM
Sun, May 31
48 °FBroken clouds.22 mph76%29.56 "HgN/A
7:00 AM48 °FMore clouds than sun.22 mph76%29.56 "HgN/A
6:30 AM48 °FPartly sunny.21 mph71%29.56 "HgN/A
6:00 AM48 °FPassing clouds.18 mph71%29.56 "HgN/A
5:30 AM48 °FPassing clouds.20 mph71%29.59 "HgN/A
5:00 AM48 °FOvercast.20 mph71%29.59 "HgN/A
4:30 AM48 °FMostly cloudy.22 mph71%29.59 "HgN/A
4:00 AM48 °FPassing clouds.23 mph66%29.59 "HgN/A
3:30 AM46 °FPassing clouds.23 mph71%29.59 "HgN/A
3:00 AM48 °FClear.23 mph66%29.62 "HgN/A
2:30 AM46 °FPassing clouds.23 mph71%29.62 "HgN/A
2:00 AM46 °FPassing clouds.24 mph71%29.62 "HgN/A
1:30 AM46 °FClear.22 mph71%29.62 "HgN/A
1:00 AM46 °FPassing clouds.21 mph71%29.62 "HgN/A
12:30 AM46 °FClear.18 mph66%29.65 "HgN/A
12:00 AM45 °FPassing clouds.15 mph71%29.65 "HgN/A
11:30 PM
Sat, May 30
46 °FPassing clouds.18 mph66%29.68 "HgN/A
11:00 PM45 °FPassing clouds.15 mph71%29.65 "HgN/A
10:30 PM45 °FPassing clouds.17 mph71%29.68 "HgN/A
10:00 PM46 °FClear.22 mph66%29.68 "HgN/A
9:30 PM46 °FPassing clouds.20 mph71%29.68 "HgN/A
9:00 PM46 °FPassing clouds.16 mph71%29.68 "HgN/A
8:30 PM46 °FClear.16 mph66%29.71 "HgN/A
8:00 PM46 °FClear.14 mph71%29.71 "HgN/A
7:30 PM46 °FPassing clouds.16 mph76%29.71 "HgN/A
7:00 PM46 °FClear.15 mph76%29.71 "HgN/A
6:30 PM46 °FClear.17 mph76%29.68 "HgN/A
6:00 PM48 °FClear.20 mph76%29.68 "HgN/A
5:30 PM48 °FPassing clouds.15 mph76%29.68 "HgN/A
5:00 PM50 °FClear.15 mph71%29.68 "HgN/A
4:00 PM54 °FPassing clouds.22 mph67%29.65 "HgN/A
3:30 PM54 °FScattered clouds.28 mph67%29.65 "HgN/A
3:00 PM54 °FCloudy.26 mph67%29.65 "HgN/A
2:30 PM54 °FDrizzle. Mostly cloudy.18 mph77%29.65 "HgN/A
2:00 PM55 °FMostly cloudy.26 mph63%29.65 "HgN/A
1:30 PM55 °FCloudy.29 mph67%29.65 "HgN/A
1:00 PM54 °FMore clouds than sun.24 mph77%29.65 "HgN/A
12:30 PM54 °FCloudy.24 mph77%29.65 "HgN/A
12:00 PM54 °FBroken clouds.28 mph77%29.68 "HgN/A
11:30 AM54 °FMostly cloudy.29 mph77%29.68 "HgN/A
11:00 AM54 °FMostly cloudy.26 mph77%29.71 "HgN/A
10:30 AM52 °FMostly cloudy.24 mph88%29.74 "HgN/A
10:00 AM52 °FCloudy.25 mph88%29.74 "HgN/A
9:30 AM50 °FMostly cloudy.22 mph94%29.77 "HgN/A
9:00 AM50 °FOvercast.22 mph94%29.77 "HgN/A
Weather by CustomWeather, © 2015

See weather overviewHow to use our weather pages